2025-292J

Last updated on Mon Dec 15 2025 00:02:13 GMT+0000 (Coordinated Universal Time)

1 67001U 25292J 25348.33714840 .00006749 00000+0 48752-3 0 9990 2 67001 97.6571 60.8731 0014282 262.9248 97.0354 15.04325661 636
UTC large
Height (km)
Speed (km/s)
/
Latitude / Longitude
Inclination (degrees)
Orbital Period (minutes)
Azimuth
Elevation
Range (km)
Doppler Factor

Next 0 passes for location: London (51.5072 / 0.1276)

Sorry there are no passes over London.